Flag for U.S.A. Weather past 2 weeks in Nashville, Tennessee, U.S.A.

Now
77 °F

Scattered clouds.


Feels Like: 78 °F
Forecast: 42 / 79 °F
Wind: 12 mph from West

Location: Nashville International Airport

Current Time: Mar 31, 2015 at 1:23:03 PM

Latest Report: Mar 31, 2015 at 12:53 PM


Visibility: 10 mi

Pressure: 29.93 "Hg

Humidity: 40%

Dew point: 51 °F

Location of NashvilleLocation

Historic Weather in Nashville — Graph

°F

Nashville temperature yesterday

Maximum temperature yesterday: 69 °F (at 2:53 PM)
Minimum temperature yesterday: 47 °F (at 5:53 AM)
Average temperature yesterday: 58 °F

Past Weeks' High & Low Weather Summary

 TemperatureHumidityPressure
High79 °F (Mar 16, 3:53 PM)96% (Mar 21, 7:53 AM)30.36 "Hg (Mar 21, 7:53 AM)
Low25 °F (Mar 29, 5:53 AM)18% (Mar 30, 3:53 PM)29.82 "Hg (Mar 26, 11:53 AM)
Average54 °F61%30.09 "Hg
* Reported Mar 16 11:53 AM — Mar 31 11:53 AM, Nashville, Weather by CustomWeather, © 2015

Note: Actual official high and low records may vary slightly from our data, if they occured in-between our weather recording intervals... More about our weather records

Advertising

Nashville weather history for previous 24 hours

 ConditionsComfort  
Time TempWeatherWind HumidityBarometerVisibility
11:53 AM
Tue, Mar 31
74 °FScattered clouds.9 mph50%29.96 "Hg10 mi
10:53 AM73 °FScattered clouds.10 mph50%29.98 "Hg10 mi
9:53 AM70 °FPassing clouds.8 mph46%29.98 "Hg10 mi
8:53 AM63 °FScattered clouds.10 mph47%29.99 "Hg10 mi
7:53 AM51 °FPassing clouds.3 mph66%30.01 "Hg10 mi
6:53 AM44 °FPassing clouds.5 mph68%30.01 "Hg10 mi
5:53 AM40 °FPassing clouds.8 mph80%30.00 "Hg10 mi
4:53 AM41 °FClear.3 mph76%30.00 "Hg10 mi
3:53 AM42 °FClear.No wind73%30.01 "Hg10 mi
2:53 AM45 °FClear.3 mph65%30.02 "Hg10 mi
1:53 AM42 °FClear.5 mph76%30.04 "Hg10 mi
12:53 AM45 °FClear.5 mph65%30.06 "Hg10 mi
11:53 PM
Mon, Mar 30
47 °FClear.5 mph61%30.08 "Hg10 mi
10:53 PM49 °FClear.5 mph57%30.09 "Hg10 mi
9:53 PM57 °FClear.No wind34%30.11 "Hg10 mi
8:53 PM57 °FClear.No wind32%30.11 "Hg10 mi
7:53 PM61 °FClear.5 mph25%30.10 "Hg10 mi
6:53 PM65 °FPassing clouds.No wind20%30.09 "Hg10 mi
5:53 PM68 °FSunny.5 mph18%30.10 "Hg10 mi
4:53 PM69 °FSunny.8 mph18%30.09 "Hg10 mi
3:53 PM68 °FPassing clouds.No wind18%30.11 "Hg10 mi
2:53 PM69 °FPassing clouds.10 mph19%30.13 "Hg10 mi
1:53 PM68 °FScattered clouds.9 mph22%30.16 "Hg10 mi
Weather by CustomWeather, © 2015

See weather overviewHow to use our weather pages